Location: Croydon
(51.3762°N, 0.0982°W)
Time: 09:15:22
(UTC+00:00)

Altair - Pass Details

Date: 17 November 2019
Orbit: 1502 x 1682 km, 47.2° (Epoch: 06 December)

Event Time Altitude Azimuth Distance (km) Brightness Sun altitude
Rises 02:46:47 0° 208° (SSW) 4,638 - -41.9°
Reaches altitude 10° 02:50:12 10° 199° (SSW) 3,650 - -41.4°
Exits shadow 02:57:30 32° 146° (SE) 2,360 8.4 -40.4°
Maximum altitude 02:57:56 32° 141° (SE) 2,356 8.5 -40.3°
Drops below altitude 10° 03:05:42 10° 83° (E) 3,681 10.2 -39.2°
Sets 03:09:09 0° 74° (ENE) 4,682 11.0 -38.7°
